User: anonymous   Login
Location: PACMO
(41.3967°N, 90.3760°W)
Time: 06:45:57
(UTC-06:00)
Language:

BREEZE-M DEB (TANK) - Orbit

View from above orbital plane
View from above orbital plane
View from above satellite
View from above satellite

Ground track
Ground track

The orbit data is extracted from the following two-line orbital elements,

1 31863U 07032B   14353.59270538  .00002206  00000-0  12021-2 0  3428
2 31863 045.9687 057.3400 5001134 273.0201 033.3155 05.51021498149256
Epoch (UTC): 19 December 2014 14:13:29
Eccentricity: 0.5001134
inclination: 45.9687°
perigee height: 390 km
apogee height: 13933 km
right ascension of ascending node: 57.3400°
argument of perigee: 273.0201°
revolutions per day: 5.51021498
mean anomaly at epoch: 33.3155°
orbit number at epoch: 14925

The dashed part of the orbit path shows where the satellite is in the earth's shadow,  

DLR